Weather History for Mmabatho, South Africa

Change the Weather History Date:

Tuesday, October 2, 2012

  Actual Average Record
Temperature  
Mean Temperature 72 °F -  
Max Temperature 87 °F - - ()
Min Temperature 56 °F - - ()
Cooling Degree Days 6    
Growing Degree Days 22 (Base 50)    
Moisture  
Dew Point 21 °F    
Average Humidity 15    
Maximum Humidity 33    
Minimum Humidity 4    
Precipitation  
Precipitation 0.00 in - - ()
Sea Level Pressure  
Sea Level Pressure 30.22 in    
Wind  
Wind Speed 8 mph ()    
Max Wind Speed 17 mph    
Max Gust Speed -    
Visibility 19.0 miles    
Events      
T = Trace of Precipitation, MM = Missing Value Source: Averaged Metar Reports

Daily Weather History Graph

Daily Weather History Graph

Search for Another Location

Airport:

Trip Planner

Search our weather history database for the weather conditions in past years. The results will help you decide how hot, cold, wet, or windy it might be!

Date:

Astronomy

Oct. 02, 2012 Rise Set
Actual Time 5:56 AM SAST 6:18 PM SAST
Civil Twilight 5:33 AM SAST 6:41 PM SAST
Nautical Twilight 5:06 AM SAST 7:08 PM SAST
Astronomical Twilight 4:39 AM SAST 7:35 PM SAST
Moon 8:29 PM SAST (10/2) 7:02 AM SAST (10/2)
Length of Visible Light 13h 08m
Length of Day
12h 22m
Waning Gibbous, 95% of the Moon is Illuminated
Oct 2
Waning Gibbous
Oct 8
Last Quarter
Oct 15
New
Oct 22
First Quarter
Oct 29
Full

Hourly Weather History & Observations

Time (SAST) Temp. Dew Point Humidity Pressure Visibility Wind Dir Wind Speed Gust Speed Precip Events Conditions
12:00 AM 64.4 °F 23.0 °F 21% 30.24 in - NNE 5.8 mph - N/A   Unknown
1:00 AM 60.8 °F 24.8 °F 25% 30.24 in - NNE 8.1 mph - N/A   Unknown
2:00 AM 62 °F 25 °F 13%  in - NNE 8.1 mph - -  
2:00 AM 60.8 °F 24.8 °F 25% 30.24 in - NNE 6.9 mph - N/A   Unknown
3:00 AM 59.0 °F 26.6 °F 29% 30.24 in - NE 6.9 mph - N/A   Unknown
4:00 AM 59.0 °F 26.6 °F 29% 30.24 in - NNE 9.2 mph - N/A   Unknown
5:00 AM 57 °F 25 °F 18%  in 19 mi NNE 11.5 mph - -  
5:00 AM 55.4 °F 26.6 °F 33% 30.24 in - NNE 10.4 mph - N/A   Unknown
6:00 AM 57.2 °F 28.4 °F 33% 30.27 in - NNE 10.4 mph - N/A   Clear
7:00 AM 60.8 °F 30.2 °F 31% 30.27 in - NE 12.7 mph - N/A   Clear
7:31 AM 68.0 °F 32.0 °F 26% 30.30 in - NNE 12.7 mph - N/A   Clear
8:00 AM 70 °F 30 °F 13%  in 19 mi NNE 17.3 mph - -  
8:00 AM 69.8 °F 30.2 °F 23% 30.27 in - NNE 16.1 mph - N/A   Clear
9:00 AM 73.4 °F 30.2 °F 20% 30.27 in - NNE 15.0 mph - N/A   Clear
10:00 AM 78.8 °F 28.4 °F 16% 30.27 in - NNE 13.8 mph - N/A   Clear
11:00 AM 82 °F 23 °F 5%  in 19 mi NNE 12.7 mph - -  
11:00 AM 80.6 °F 23.0 °F 12% 30.27 in - NNE 12.7 mph - N/A   Clear
12:00 PM 82.4 °F 23.0 °F 11% 30.24 in - North 10.4 mph - N/A   Clear
1:00 PM 84.2 °F 21.2 °F 10% 30.21 in - NNE 8.1 mph - N/A   Clear
2:00 PM 87 °F 16 °F 4%  in 19 mi WNW 6.9 mph - -   Clear
2:00 PM 86.0 °F 17.6 °F 8% 30.18 in - WNW 5.8 mph - N/A   Clear
3:00 PM 86.0 °F 14.0 °F 7% 30.15 in - NNW 5.8 mph - N/A   Clear
4:00 PM 86.0 °F 14.0 °F 7% 30.15 in - North 4.6 mph - N/A   Clear
5:00 PM 87 °F 8 °F 4%  in 19 mi NNW 5.8 mph - -  
5:00 PM 86.0 °F 8.6 °F 5% 30.15 in - NNW 4.6 mph - N/A   Clear
6:00 PM 84.2 °F 6.8 °F 5% 30.15 in - NNW 4.6 mph - N/A   Clear
7:00 PM 78.8 °F 12.2 °F 8% 30.15 in - NNW 2.3 mph - N/A   Clear
8:00 PM 76 °F 11 °F 4%  in 19 mi North 4.6 mph - -   Clear
8:00 PM 75.2 °F 12.2 °F 9% 30.18 in - North 3.5 mph - N/A   Clear
9:00 PM 69.8 °F 17.6 °F 14% 30.18 in - NNE 5.8 mph - N/A   Unknown
10:00 PM 68.0 °F 17.6 °F 15% 30.18 in - NE 6.9 mph - N/A   Unknown
11:00 PM 67 °F 18 °F 7%  in - NNE 9.2 mph - -  
11:00 PM 66.2 °F 19.4 °F 17% 30.18 in - NNE 8.1 mph - N/A   Unknown